INSAT-3D

Last updated on Tue Oct 14 2025 00:02:22 GMT+0000 (Coordinated Universal Time)

1 39216U 13038B 25286.58453187 -.00000351 00000+0 00000+0 0 9998 2 39216 1.2851 85.7288 0002034 147.0910 129.5085 1.00267412 44606
UTC large
Height (km)
Speed (km/s)
/
Latitude / Longitude
Inclination (degrees)
Orbital Period (minutes)
Azimuth
Elevation
Range (km)
Doppler Factor

Next 0 passes for location: London (51.5072 / 0.1276)

Sorry there are no passes over London.